This demonstration page uses our WeatherBlox Daily Observations layout. Learn more.

Left ArrowRight Arrow

Hourly Observations for August 31, 2021

Temp ( °F °C ) Dew Point ( °F °C ) Humidity (%) Winds ( mph kmh ) Pressure ( in mb ) Visibility ( mi km ) Precip ( " mm )
12:54 am 00:54 Clear 78 25.6 71 21.7 79 79 SSE 14 22 29.72 1006 10 16 0.00 0.00
1:54 am 01:54 Mostly Clear 77 25 71 21.7 82 82 E 8 13 29.71 1006 10 16 0.00 0.00
2:24 am 02:24 Cloudy 71 21.7 64 17.8 79 79 ENE 6 9 29.76 1008 10 16 0.00 0.00
2:54 am 02:54 Cloudy with Light Rain 67 19.4 62 16.7 84 84 NNE 13 20 29.80 1009 9 14 0.00 0.00
3:02 am 03:02 Cloudy with Nearby Thunderstorms 66 18.9 62 16.7 87 87 NE 14 22 29.80 1009 9 14 0.03 0.76
3:22 am 03:22 Cloudy with Light Rain 67 19.4 63 17.2 87 87 E 9 15 29.81 1009 10 16 0.03 0.76
3:31 am 03:31 Cloudy with Light Rain 67 19.4 63 17.2 87 87 E 16 26 29.81 1009 10 16 0.03 0.76
3:50 am 03:50 Cloudy 66 19 64 18 94 94 E 13 20 29.80 1009 10 16 0.03 0.76
3:54 am 03:54 Cloudy 67 19.4 64 17.8 91 91 E 15 24 29.79 1009 10 16 0.03 0.76
4:54 am 04:54 Cloudy 67 19.4 63 17.2 87 87 E 12 19 29.79 1009 10 16 0.00 0.00
5:54 am 05:54 Cloudy 67 19.4 63 17.2 87 87 SE 15 24 29.75 1008 10 16 0.00 0.00
6:10 am 06:10 Cloudy with Nearby Thunderstorms 68 20 63 17.2 84 84 E 8 13 29.80 1009 10 16 0.00 0.00
6:21 am 06:21 Cloudy with Thunderstorms 67 19.4 63 17.2 87 87 N 26 43 29.87 1012 7 11 0.00 0.00
6:25 am 06:25 Very Windy with Storms Likely 66 18.9 63 17.2 90 90 NNE 44 70 29.88 1012 1 2 0.00 0.00
6:27 am 06:27 Very Windy with Storms Likely 64 17.8 62 16.7 93 93 NNE 43 69 29.90 1012 1 1 0.01 0.25
6:37 am 06:37 Cloudy with Strong Thunderstorms 63 17.2 61 16.1 93 93 NE 22 35 29.90 1013 1 1 0.56 14.22
6:41 am 06:41 Cloudy with Strong Thunderstorms 62 16.7 61 16.1 96 96 E 18 30 29.88 1012 2 2 0.66 16.76
6:44 am 06:44 Cloudy with Strong Thunderstorms 62 16.7 60 15.6 93 93 E 16 26 29.87 1012 2 3 0.71 18.03
6:48 am 06:48 Cloudy with Strong Thunderstorms 63 17 61 16 94 94 E 14 22 29.86 1011 3 5 0.75 19.05
6:54 am 06:54 Cloudy with Thunderstorms 63 17.2 60 15.6 90 90 ESE 8 13 29.86 1011 5 8 0.77 19.56
7:16 am 07:16 Mostly Cloudy with Nearby Thunderstorms 63 17.2 60 15.6 90 90 E 8 13 29.87 1011 10 16 0.04 1.02
7:23 am 07:23 Mostly Cloudy with Light Rain 63 17.2 60 15.6 90 90 E 10 17 29.85 1011 9 14 0.05 1.27
7:54 am 07:54 Mostly Cloudy with Light Rain 63 17.2 60 15.6 90 90 SSE 17 28 29.79 1009 10 16 0.08 2.03
8:54 am 08:54 Mostly Cloudy 63 17.2 60 15.6 90 90 S 6 9 29.77 1008 10 16 0.00 0.00
9:54 am 09:54 Sunny 66 18.9 60 15.6 81 81 S 6 9 29.80 1009 10 16 0.00 0.00
10:54 am 10:54 Sunny 69 20.6 61 16.1 76 76 S 10 17 29.78 1009 10 16 0.00 0.00
11:54 am 11:54 Sunny 74 23.3 61 16.1 64 64 Calm 29.79 1009 10 16 0.00 0.00
12:54 pm 12:54 Partly Cloudy 77 25 63 17.2 62 62 NE 12 19 29.79 1009 10 16 0.00 0.00
1:01 pm 13:01 Mostly Cloudy 76 24.4 63 17.2 64 64 ENE 10 17 29.78 1008 10 16 0.00 0.00
1:26 pm 13:26 Partly Cloudy 77 25 63 17.2 62 62 NE 10 17 29.77 1008 10 16 0.00 0.00
1:54 pm 13:54 Partly Cloudy 77 25 64 17.8 64 64 NE 12 19 29.79 1009 10 16 0.00 0.00
2:54 pm 14:54 Mostly Cloudy 77 25 64 17.8 64 64 ENE 15 24 29.79 1009 10 16 0.00 0.00
3:54 pm 15:54 Mostly Cloudy 78 25.6 64 17.8 62 62 E 9 15 29.79 1009 10 16 0.00 0.00
4:11 pm 16:11 Mostly Sunny 78 25.6 63 17.2 60 60 ENE 12 19 29.76 1008 10 16 0.00 0.00
4:54 pm 16:54 Mostly Sunny 77 25 63 17.2 62 62 E 9 15 29.79 1009 10 16 0.00 0.00
5:54 pm 17:54 Sunny 77 25 62 16.7 60 60 E 9 15 29.79 1009 10 16 0.00 0.00
6:54 pm 18:54 Sunny 76 24.4 63 17.2 64 64 ENE 8 13 29.79 1009 10 16 0.00 0.00
7:54 pm 19:54 Sunny 74 23.3 63 17.2 69 69 E 6 9 29.80 1009 10 16 0.00 0.00
8:54 pm 20:54 Clear 68 20 63 17.2 84 84 NNE 5 7 29.83 1010 10 16 0.00 0.00
9:54 pm 21:54 Clear 70 21.1 64 17.8 82 82 ENE 8 13 29.84 1011 10 16 0.00 0.00
10:54 pm 22:54 Clear 70 21.1 63 17.2 79 79 E 9 15 29.85 1011 10 16 0.00 0.00
11:54 pm 23:54 Clear 70 21.1 63 17.2 79 79 E 9 15 29.85 1011 10 16 0.00 0.00

Powered by AerisWeather